Location: Oak Glen
(34.0495°N, 116.9470°E)
Time: 17:16:28
(UTC-08:00)

Hubble Space Telescope - Pass Details

Date: 08 October 2017
Orbit: 537 x 541 km, 28.5° (Epoch: 17 December)

Event Time Altitude Azimuth Distance (km) Brightness Sun altitude
Exits shadow 13:35:04 32° 190° (S) 921 1.8 -20.9°
Maximum altitude 13:35:07 32° 189° (S) 920 1.8 -20.9°
Drops below altitude 10° 13:38:50 10° 125° (SE) 1,784 4.1 -20.2°
Sets 13:41:15 0° 115° (ESE) 2,674 5.3 -19.7°
